Location: Olsztyn
(53.7767°N, 20.4765°E)
Time: 08:11:59
(UTC+01:00)

BlueWalker 3 - Visible Passes

Search period start: 06 December 2022 00:00
Search period end: 16 December 2022 00:00
Orbit: 501 x 518 km, 53.2° (Epoch: 05 December)

Date Brightness Start Highest point End Pass type
(mag) Time Alt. Az. Time Alt. Az. Time Alt. Az.
06 Dec 2.3 17:26:14 10° W 17:30:07 62° SSW 17:31:40 33° SE visible
06 Dec 4.8 19:05:14 10° W 19:06:31 16° WSW 19:06:31 16° WSW visible
07 Dec 2.4 17:07:50 10° W 17:11:43 61° SSW 17:14:16 20° ESE visible
07 Dec 4.3 18:46:51 10° W 18:49:07 20° SW 18:49:07 20° SW visible
08 Dec 2.5 16:49:26 10° W 16:53:18 59° SSW 16:56:59 11° ESE visible
08 Dec 4.1 18:28:29 10° W 18:31:26 21° SW 18:31:51 20° SSW visible
09 Dec 2.6 16:31:01 10° W 16:34:53 57° SSW 16:38:42 10° ESE visible
09 Dec 4.3 18:10:07 10° W 18:13:00 20° SW 18:14:45 15° S visible
10 Dec 2.7 16:12:35 10° W 16:16:27 56° SSW 16:20:16 10° ESE visible
10 Dec 4.5 17:51:45 10° W 17:54:33 19° SW 17:57:20 10° S visible
11 Dec 4.7 17:33:23 10° W 17:36:06 18° SW 17:38:47 10° S visible
12 Dec 4.8 17:15:01 10° W 17:17:38 17° SW 17:20:14 10° S visible
13 Dec 4.9 16:56:39 10° W 16:59:10 17° SW 17:01:40 10° S visible
14 Dec 5.0 16:38:17 10° W 16:40:42 16° SW 16:43:06 10° S visible
15 Dec 5.1 16:19:56 10° W 16:22:13 15° SW 16:24:30 10° S visible
